START_TIME,STEP,MOV.,M6,t_acc.,M7,t_acc.,M19,t_acc.,H36,t_acc.
1979-07-06 15:00:27.770 ,1,0,4.,12.0,0.,12.0,0.,12.0,0.,12.0
1979-07-06 15:00:39.770 ,1,0,1.,12.0,0.,12.0,0.,12.0,0.,12.0
1979-07-06 15:00:51.770 ,2,1,2.,12.0,0.,12.0,0.,12.0,0.,12.0
1979-07-06 15:01:03.770 ,2,1,4.,12.0,0.,12.0,0.,12.0,2.,12.0
1979-07-06 15:01:15.770 ,2,0,5.,12.0,0.,12.0,0.,12.0,0.,12.0
1979-07-06 15:01:27.770 ,2,0,5.,12.0,0.,12.0,0.,12.0,0.,12.0
1979-07-06 15:01:39.770 ,3,1,3.,12.0,0.,12.0,0.,12.0,1.,12.0
1979-07-06 15:01:51.770 ,3,1,8.,12.0,0.,12.0,0.,12.0,0.,12.0
1979-07-06 15:02:03.770 ,3,0,5.,12.0,0.,12.0,0.,12.0,2.,12.0
1979-07-06 15:02:15.770 ,3,0,10.,12.0,0.,12.0,0.,12.0,2.,12.0
1979-07-06 15:02:27.770 ,4,1,6.,12.0,0.,12.0,0.,12.0,0.,12.0
1979-07-06 15:02:39.770 ,4,1,20.,12.0,0.,12.0,0.,12.0,8.,12.0
1979-07-06 15:02:51.770 ,4,0,16.,12.0,0.,12.0,0.,12.0,4.,12.0
1979-07-06 15:03:03.770 ,4,0,18.,12.0,0.,12.0,0.,12.0,3.,12.0
1979-07-06 15:03:15.770 ,5,1,17.,12.0,0.,12.0,0.,12.0,8.,12.0
1979-07-06 15:03:27.770 ,5,1,18.,12.0,0.,12.0,0.,12.0,7.,12.0
1979-07-06 15:03:39.770 ,5,0,14.,12.0,0.,12.0,0.,12.0,7.,12.0
1979-07-06 15:03:51.770 ,5,0,19.,12.0,0.,12.0,0.,12.0,5.,12.0
1979-07-06 15:04:03.770 ,6,1,13.,12.0,0.,12.0,0.,12.0,6.,12.0
1979-07-06 15:04:15.770 ,6,1,9.,12.0,0.,12.0,0.,12.0,3.,12.0
1979-07-06 15:04:27.770 ,6,0,9.,12.0,0.,12.0,0.,12.0,4.,12.0
1979-07-06 15:04:39.770 ,6,0,5.,12.0,0.,12.0,0.,12.0,2.,12.0
1979-07-06 15:04:51.770 ,7,1,10.,12.0,0.,12.0,0.,12.0,4.,12.0
1979-07-06 15:05:03.770 ,7,1,2.,12.0,0.,12.0,0.,12.0,0.,12.0
1979-07-06 15:05:15.770 ,7,0,0.,12.0,0.,12.0,0.,12.0,0.,12.0
1979-07-06 15:05:27.770 ,7,0,0.,12.0,0.,12.0,0.,12.0,0.,12.0
1979-07-06 15:05:39.770 ,7,1,0.,12.0,0.,12.0,0.,12.0,0.,12.0
1979-07-06 15:05:51.770 ,7,1,0.,12.0,0.,12.0,0.,12.0,0.,12.0
1979-07-06 15:06:03.770 ,7,0,0.,12.0,0.,12.0,0.,12.0,0.,12.0
1979-07-06 15:06:15.770 ,7,0,0.,12.0,0.,12.0,0.,12.0,0.,12.0
1979-07-06 15:06:27.770 ,6,1,0.,12.0,0.,12.0,0.,12.0,0.,12.0
1979-07-06 15:06:39.770 ,6,1,14.,12.0,0.,12.0,0.,12.0,5.,12.0
1979-07-06 15:06:51.770 ,6,0,19.,12.0,0.,12.0,0.,12.0,3.,12.0
1979-07-06 15:07:03.770 ,6,0,15.,12.0,0.,12.0,0.,12.0,5.,12.0
1979-07-06 15:07:15.770 ,5,1,10.,12.0,0.,12.0,0.,12.0,6.,12.0
1979-07-06 15:07:27.770 ,5,1,8.,12.0,0.,12.0,0.,12.0,4.,12.0
1979-07-06 15:07:39.770 ,5,0,7.,12.0,0.,12.0,0.,12.0,5.,12.0
1979-07-06 15:07:51.770 ,5,0,5.,12.0,0.,12.0,0.,12.0,4.,12.0
1979-07-06 15:08:03.770 ,4,1,12.,12.0,0.,12.0,0.,12.0,6.,12.0
1979-07-06 15:08:15.770 ,4,1,12.,12.0,0.,12.0,0.,12.0,5.,12.0
1979-07-06 15:08:27.770 ,4,0,13.,12.0,0.,12.0,0.,12.0,1.,12.0
1979-07-06 15:08:39.770 ,4,0,8.,12.0,0.,12.0,0.,12.0,3.,12.0
1979-07-06 15:08:51.770 ,3,1,8.,12.0,0.,12.0,0.,12.0,4.,12.0
1979-07-06 15:09:03.770 ,3,1,14.,12.0,0.,12.0,0.,12.0,3.,12.0
1979-07-06 15:09:15.770 ,3,0,4.,12.0,0.,12.0,0.,12.0,2.,12.0
1979-07-06 15:09:27.770 ,3,0,12.,12.0,0.,12.0,0.,12.0,2.,12.0
1979-07-06 15:09:39.770 ,2,1,13.,12.0,0.,12.0,0.,12.0,1.,12.0
1979-07-06 15:09:51.770 ,2,1,3.,12.0,0.,12.0,0.,12.0,0.,12.0
1979-07-06 15:10:03.770 ,2,0,3.,12.0,0.,12.0,0.,12.0,1.,12.0
1979-07-06 15:10:15.770 ,2,0,2.,12.0,0.,12.0,0.,12.0,1.,12.0
1979-07-06 15:10:27.770 ,1,1,4.,12.0,0.,12.0,0.,12.0,0.,12.0
1979-07-06 15:10:39.770 ,1,1,5.,12.0,0.,12.0,0.,12.0,2.,12.0
1979-07-06 15:10:51.770 ,1,0,3.,12.0,0.,12.0,0.,12.0,0.,12.0
1979-07-06 15:11:03.770 ,1,0,6.,12.0,0.,12.0,0.,12.0,3.,12.0
1979-07-06 15:11:15.770 ,0,1,5.,12.0,0.,12.0,0.,12.0,1.,12.0
1979-07-06 15:11:27.770 ,0,1,2.,12.0,0.,12.0,0.,12.0,0.,12.0
1979-07-06 15:11:39.770 ,0,0,3.,12.0,0.,12.0,0.,12.0,1.,12.0
1979-07-06 15:11:51.770 ,0,0,5.,12.0,0.,12.0,0.,12.0,1.,12.0
1979-07-06 15:12:03.770 ,0,1,2.,12.0,0.,12.0,0.,12.0,1.,12.0
1979-07-06 15:12:15.770 ,0,1,4.,12.0,0.,12.0,0.,12.0,1.,12.0
1979-07-06 15:12:27.770 ,0,0,6.,12.0,0.,12.0,0.,12.0,0.,12.0
1979-07-06 15:12:39.770 ,0,0,3.,12.0,0.,12.0,0.,12.0,1.,12.0
1979-07-06 15:12:51.770 ,1,1,1.,12.0,0.,12.0,0.,12.0,0.,12.0
1979-07-06 15:13:03.770 ,1,1,5.,12.0,0.,12.0,0.,12.0,6.,12.0
1979-07-06 15:13:15.770 ,1,0,5.,12.0,0.,12.0,0.,12.0,0.,12.0
1979-07-06 15:13:27.770 ,1,0,2.,12.0,0.,12.0,0.,12.0,0.,12.0
1979-07-06 15:13:39.770 ,2,1,3.,12.0,0.,12.0,0.,12.0,2.,12.0
1979-07-06 15:13:51.770 ,2,1,4.,12.0,0.,12.0,0.,12.0,0.,12.0
1979-07-06 15:14:03.770 ,2,0,2.,12.0,0.,12.0,0.,12.0,0.,12.0
1979-07-06 15:14:15.770 ,2,0,4.,12.0,0.,12.0,0.,12.0,0.,12.0
1979-07-06 15:14:27.770 ,3,1,2.,12.0,0.,12.0,0.,12.0,0.,12.0
1979-07-06 15:14:39.770 ,3,1,3.,12.0,0.,12.0,0.,12.0,0.,12.0
1979-07-06 15:14:51.770 ,3,0,11.,12.0,0.,12.0,0.,12.0,0.,12.0
1979-07-06 15:15:03.770 ,3,0,3.,12.0,0.,12.0,0.,12.0,3.,12.0
1979-07-06 15:15:15.770 ,4,1,4.,12.0,0.,12.0,0.,12.0,2.,12.0
1979-07-06 15:15:27.770 ,4,1,10.,12.0,0.,12.0,0.,12.0,2.,12.0
1979-07-06 15:15:39.770 ,4,0,8.,12.0,0.,12.0,0.,12.0,2.,12.0
1979-07-06 15:15:51.770 ,4,0,9.,12.0,0.,12.0,0.,12.0,4.,12.0
1979-07-06 15:16:03.770 ,5,1,13.,12.0,0.,12.0,0.,12.0,1.,12.0
1979-07-06 15:16:15.770 ,5,1,12.,12.0,0.,12.0,0.,12.0,2.,12.0
1979-07-06 15:16:27.770 ,5,0,3.,12.0,0.,12.0,0.,12.0,4.,12.0
1979-07-06 15:16:39.770 ,5,0,9.,12.0,0.,12.0,0.,12.0,6.,12.0
1979-07-06 15:16:51.770 ,6,1,11.,12.0,0.,12.0,0.,12.0,10.,12.0
1979-07-06 15:17:03.770 ,6,1,7.,12.0,0.,12.0,0.,12.0,7.,12.0
1979-07-06 15:17:15.770 ,6,0,11.,12.0,0.,12.0,0.,12.0,1.,12.0
1979-07-06 15:17:27.770 ,6,0,4.,12.0,0.,12.0,0.,12.0,5.,12.0
1979-07-06 15:17:39.770 ,7,1,14.,12.0,0.,12.0,0.,12.0,3.,12.0
1979-07-06 15:17:51.770 ,7,1,0.,12.0,0.,12.0,0.,12.0,1.,12.0
1979-07-06 15:18:03.770 ,7,0,0.,12.0,0.,12.0,0.,12.0,0.,12.0
1979-07-06 15:18:15.770 ,7,0,0.,12.0,0.,12.0,0.,12.0,0.,12.0
1979-07-06 15:18:27.770 ,7,1,0.,12.0,0.,12.0,0.,12.0,0.,12.0
1979-07-06 15:18:39.770 ,7,1,0.,12.0,0.,12.0,0.,12.0,0.,12.0
1979-07-06 15:18:51.770 ,7,0,0.,12.0,0.,12.0,0.,12.0,0.,12.0
1979-07-06 15:19:03.770 ,7,0,0.,12.0,0.,12.0,0.,12.0,0.,12.0
1979-07-06 15:19:15.770 ,6,1,0.,12.0,0.,12.0,0.,12.0,0.,12.0
1979-07-06 15:19:27.770 ,6,1,16.,12.0,0.,12.0,0.,12.0,2.,12.0
1979-07-06 15:19:39.770 ,6,0,13.,12.0,0.,12.0,0.,12.0,3.,12.0
1979-07-06 15:19:51.770 ,6,0,14.,12.0,0.,12.0,0.,12.0,2.,12.0
1979-07-06 15:20:03.770 ,5,1,13.,12.0,0.,12.0,0.,12.0,7.,12.0
1979-07-06 15:20:15.770 ,5,1,18.,12.0,0.,12.0,0.,12.0,6.,12.0
1979-07-06 15:20:27.770 ,5,0,17.,12.0,0.,12.0,0.,12.0,8.,12.0
1979-07-06 15:20:39.770 ,5,0,24.,12.0,0.,12.0,0.,12.0,3.,12.0
1979-07-06 15:20:51.770 ,4,1,24.,12.0,0.,12.0,0.,12.0,5.,12.0
1979-07-06 15:21:03.770 ,4,1,13.,12.0,0.,12.0,0.,12.0,2.,12.0
1979-07-06 15:21:15.770 ,4,0,11.,12.0,0.,12.0,0.,12.0,3.,12.0
1979-07-06 15:21:27.770 ,4,0,14.,12.0,0.,12.0,0.,12.0,1.,12.0
1979-07-06 15:21:39.770 ,3,1,15.,12.0,0.,12.0,0.,12.0,3.,12.0
1979-07-06 15:21:51.770 ,3,1,11.,12.0,0.,12.0,0.,12.0,4.,12.0
1979-07-06 15:22:03.770 ,3,0,8.,12.0,0.,12.0,0.,12.0,2.,12.0
1979-07-06 15:22:15.770 ,3,0,8.,12.0,0.,12.0,0.,12.0,1.,12.0
1979-07-06 15:22:27.770 ,2,1,10.,12.0,0.,12.0,0.,12.0,2.,12.0
1979-07-06 15:22:39.770 ,2,1,3.,12.0,0.,12.0,0.,12.0,1.,12.0
1979-07-06 15:22:51.770 ,2,0,2.,12.0,0.,12.0,0.,12.0,0.,12.0
1979-07-06 15:23:03.770 ,2,0,4.,12.0,0.,12.0,0.,12.0,1.,12.0
1979-07-06 15:23:15.770 ,1,1,2.,12.0,0.,12.0,0.,12.0,2.,12.0
1979-07-06 15:23:27.770 ,1,1,3.,12.0,0.,12.0,0.,12.0,1.,12.0
1979-07-06 15:23:39.770 ,1,0,2.,12.0,0.,12.0,0.,12.0,3.,12.0
1979-07-06 15:23:51.770 ,1,0,1.,12.0,0.,12.0,0.,12.0,1.,12.0
1979-07-06 15:24:03.770 ,0,1,5.,12.0,0.,12.0,0.,12.0,1.,12.0
1979-07-06 15:24:15.770 ,0,1,1.,12.0,0.,12.0,0.,12.0,1.,12.0
1979-07-06 15:24:27.770 ,0,0,6.,12.0,0.,12.0,0.,12.0,1.,12.0
1979-07-06 15:24:39.770 ,0,0,4.,12.0,0.,12.0,0.,12.0,0.,12.0
1979-07-06 15:24:51.770 ,0,1,3.,12.0,0.,12.0,0.,12.0,1.,12.0
1979-07-06 15:25:03.770 ,0,1,4.,12.0,0.,12.0,0.,12.0,1.,12.0
1979-07-06 15:25:15.770 ,0,0,1.,12.0,0.,12.0,0.,12.0,1.,12.0
1979-07-06 15:25:27.770 ,0,0,6.,12.0,0.,12.0,0.,12.0,0.,12.0
1979-07-06 15:25:39.770 ,1,1,5.,12.0,0.,12.0,0.,12.0,1.,12.0
1979-07-06 15:25:51.770 ,1,1,3.,12.0,0.,12.0,0.,12.0,0.,12.0
1979-07-06 15:26:03.770 ,1,0,2.,12.0,0.,12.0,0.,12.0,2.,12.0
1979-07-06 15:26:15.770 ,1,0,4.,12.0,0.,12.0,0.,12.0,1.,12.0
1979-07-06 15:26:27.770 ,2,1,2.,12.0,0.,12.0,0.,12.0,0.,12.0
1979-07-06 15:26:39.770 ,2,1,4.,12.0,0.,12.0,0.,12.0,0.,12.0
1979-07-06 15:26:51.770 ,2,0,4.,12.0,0.,12.0,0.,12.0,1.,12.0
1979-07-06 15:27:03.770 ,2,0,3.,12.0,0.,12.0,0.,12.0,0.,12.0
1979-07-06 15:27:15.770 ,3,1,4.,12.0,0.,12.0,0.,12.0,2.,12.0
1979-07-06 15:27:27.770 ,3,1,14.,12.0,0.,12.0,0.,12.0,0.,12.0
1979-07-06 15:27:39.770 ,3,0,8.,12.0,0.,12.0,0.,12.0,3.,12.0
1979-07-06 15:27:51.770 ,3,0,6.,12.0,0.,12.0,0.,12.0,3.,12.0
1979-07-06 15:28:03.770 ,4,1,7.,12.0,0.,12.0,0.,12.0,1.,12.0
1979-07-06 15:28:15.770 ,4,1,21.,12.0,0.,12.0,0.,12.0,4.,12.0
1979-07-06 15:28:27.770 ,4,0,14.,12.0,0.,12.0,0.,12.0,2.,12.0
1979-07-06 15:28:39.770 ,4,0,6.,12.0,0.,12.0,0.,12.0,2.,12.0
1979-07-06 15:28:51.770 ,5,1,10.,12.0,0.,12.0,0.,12.0,4.,12.0
1979-07-06 15:29:03.770 ,5,1,8.,12.0,0.,12.0,0.,12.0,4.,12.0
1979-07-06 15:29:15.770 ,5,0,11.,12.0,0.,12.0,0.,12.0,3.,12.0
1979-07-06 15:29:27.770 ,5,0,19.,12.0,0.,12.0,0.,12.0,3.,12.0
1979-07-06 15:29:39.770 ,6,1,13.,12.0,0.,12.0,0.,12.0,1.,12.0
1979-07-06 15:29:51.770 ,6,1,12.,12.0,0.,12.0,0.,12.0,4.,12.0
1979-07-06 15:30:03.770 ,6,0,12.,12.0,0.,12.0,0.,12.0,0.,12.0
1979-07-06 15:30:15.770 ,6,0,5.,12.0,0.,12.0,0.,12.0,3.,12.0
1979-07-06 15:30:27.770 ,7,0,7.,12.0,0.,12.0,0.,12.0,3.,12.0
1979-07-06 15:30:39.770 ,7,0,0.,12.0,0.,12.0,0.,12.0,1.,12.0
1979-07-06 15:30:51.770 ,7,0,0.,12.0,0.,12.0,0.,12.0,0.,12.0
1979-07-06 15:31:03.770 ,7,0,0.,12.0,0.,12.0,0.,12.0,0.,12.0
1979-07-06 15:31:15.770 ,4,1,4.,12.0,0.,12.0,0.,12.0,1.,12.0
1979-07-06 15:31:27.770 ,4,1,10.,12.0,0.,12.0,0.,12.0,4.,12.0
1979-07-06 15:31:39.770 ,0,1,7.,12.0,0.,12.0,0.,12.0,1.,12.0
1979-07-06 15:31:51.770 ,0,1,1.,12.0,0.,12.0,0.,12.0,3.,12.0
1979-07-06 15:32:03.770 ,3,1,0.,12.0,0.,12.0,0.,12.0,2.,12.0
1979-07-06 15:32:15.770 ,3,1,1.,12.0,0.,12.0,0.,12.0,1.,12.0
1979-07-06 15:32:27.770 ,7,1,9.,12.0,0.,12.0,0.,12.0,2.,12.0
1979-07-06 15:32:39.770 ,7,1,6.,12.0,0.,12.0,0.,12.0,2.,12.0
1979-07-06 15:32:51.770 ,4,1,3.,12.0,0.,12.0,0.,12.0,0.,12.0
1979-07-06 15:33:03.770 ,4,1,6.,12.0,0.,12.0,0.,12.0,0.,12.0
1979-07-06 15:33:15.770 ,0,1,3.,12.0,0.,12.0,0.,12.0,3.,12.0
1979-07-06 15:33:27.770 ,0,1,1.,12.0,0.,12.0,0.,12.0,1.,12.0
1979-07-06 15:33:39.770 ,3,1,1.,12.0,0.,12.0,0.,12.0,1.,12.0
1979-07-06 15:33:51.770 ,3,1,4.,12.0,0.,12.0,0.,12.0,2.,12.0
1979-07-06 15:34:03.770 ,7,1,11.,12.0,0.,12.0,0.,12.0,2.,12.0
1979-07-06 15:34:15.770 ,7,1,3.,12.0,0.,12.0,0.,12.0,0.,12.0
1979-07-06 15:34:27.770 ,4,1,2.,12.0,0.,12.0,0.,12.0,2.,12.0
1979-07-06 15:34:39.770 ,4,1,4.,12.0,0.,12.0,0.,12.0,4.,12.0
1979-07-06 15:34:51.770 ,0,1,4.,12.0,0.,12.0,0.,12.0,0.,12.0
1979-07-06 15:35:03.770 ,0,1,2.,12.0,0.,12.0,0.,12.0,1.,12.0
1979-07-06 15:35:15.770 ,3,1,4.,12.0,0.,12.0,0.,12.0,1.,12.0
1979-07-06 15:35:27.770 ,3,1,3.,12.0,0.,12.0,0.,12.0,1.,12.0
1979-07-06 15:35:39.770 ,7,1,12.,12.0,0.,12.0,0.,12.0,3.,12.0
1979-07-06 15:35:51.770 ,7,1,8.,12.0,0.,12.0,0.,12.0,3.,12.0
1979-07-06 15:36:03.770 ,4,1,4.,12.0,0.,12.0,0.,12.0,0.,12.0
1979-07-06 15:36:15.770 ,4,1,4.,12.0,0.,12.0,0.,12.0,1.,12.0
1979-07-06 15:36:27.770 ,0,1,4.,12.0,0.,12.0,0.,12.0,1.,12.0
1979-07-06 15:36:39.770 ,0,1,1.,12.0,0.,12.0,0.,12.0,0.,12.0
1979-07-06 15:36:51.770 ,3,1,2.,12.0,0.,12.0,0.,12.0,1.,12.0
1979-07-06 15:37:03.770 ,3,1,5.,12.0,0.,12.0,0.,12.0,1.,12.0
1979-07-06 15:37:15.770 ,7,1,7.,12.0,0.,12.0,0.,12.0,4.,12.0
1979-07-06 15:37:27.770 ,7,1,4.,12.0,0.,12.0,0.,12.0,1.,12.0
1979-07-06 15:37:39.770 ,4,1,1.,12.0,0.,12.0,0.,12.0,3.,12.0
1979-07-06 15:37:51.770 ,4,1,9.,12.0,0.,12.0,0.,12.0,3.,12.0
1979-07-06 15:38:03.770 ,0,1,5.,12.0,0.,12.0,0.,12.0,0.,12.0
1979-07-06 15:38:15.770 ,0,1,4.,12.0,0.,12.0,0.,12.0,3.,12.0
1979-07-06 15:38:27.770 ,3,1,1.,12.0,0.,12.0,0.,12.0,1.,12.0
1979-07-06 15:38:39.770 ,3,1,0.,12.0,0.,12.0,0.,12.0,0.,12.0
1979-07-06 15:38:51.770 ,7,1,6.,12.0,0.,12.0,0.,12.0,1.,12.0
1979-07-06 15:39:03.770 ,7,1,4.,12.0,0.,12.0,0.,12.0,2.,12.0
1979-07-06 15:39:15.770 ,4,1,3.,12.0,0.,12.0,0.,12.0,2.,12.0
1979-07-06 15:39:27.770 ,4,1,8.,12.0,0.,12.0,0.,12.0,1.,12.0
1979-07-06 15:39:39.770 ,0,1,1.,12.0,0.,12.0,0.,12.0,0.,12.0
1979-07-06 15:39:51.770 ,0,1,1.,12.0,0.,12.0,0.,12.0,2.,12.0
1979-07-06 15:40:03.770 ,3,1,0.,12.0,0.,12.0,0.,12.0,0.,12.0
1979-07-06 15:40:15.770 ,3,1,1.,12.0,0.,12.0,0.,12.0,2.,12.0
1979-07-06 15:40:27.770 ,7,1,6.,12.0,0.,12.0,0.,12.0,2.,12.0
1979-07-06 15:40:39.770 ,7,1,2.,12.0,0.,12.0,0.,12.0,2.,12.0
1979-07-06 15:40:51.770 ,4,1,0.,12.0,0.,12.0,0.,12.0,1.,12.0
1979-07-06 15:41:03.770 ,4,1,7.,12.0,0.,12.0,0.,12.0,0.,12.0
1979-07-06 15:41:15.770 ,0,1,1.,12.0,0.,12.0,0.,12.0,0.,12.0
1979-07-06 15:41:27.770 ,0,1,1.,12.0,0.,12.0,0.,12.0,1.,12.0
1979-07-06 15:41:39.770 ,0,0,3.,12.0,0.,12.0,0.,12.0,0.,12.0
1979-07-06 15:41:51.770 ,0,0,0.,12.0,0.,12.0,0.,12.0,2.,12.0
1979-07-06 15:42:03.770 ,0,0,7.,12.0,0.,12.0,0.,12.0,1.,12.0
1979-07-06 15:42:15.770 ,0,0,6.,12.0,0.,12.0,0.,12.0,0.,12.0
1979-07-06 15:42:27.770 ,5,1,3.,12.0,0.,12.0,0.,12.0,0.,12.0
1979-07-06 15:42:39.770 ,5,1,6.,12.0,0.,12.0,0.,12.0,4.,12.0
1979-07-06 15:42:51.770 ,5,0,6.,12.0,0.,12.0,0.,12.0,4.,12.0
1979-07-06 15:43:03.770 ,5,0,6.,12.0,0.,12.0,0.,12.0,3.,12.0
1979-07-06 15:43:15.770 ,4,1,7.,12.0,0.,12.0,0.,12.0,2.,12.0
1979-07-06 15:43:27.770 ,4,1,4.,12.0,0.,12.0,0.,12.0,6.,12.0
1979-07-06 15:43:39.770 ,4,0,0.,12.0,0.,12.0,0.,12.0,2.,12.0
1979-07-06 15:43:51.770 ,4,0,4.,12.0,0.,12.0,0.,12.0,4.,12.0
1979-07-06 15:44:03.770 ,3,1,4.,12.0,0.,12.0,0.,12.0,0.,12.0
1979-07-06 15:44:15.770 ,3,1,2.,12.0,0.,12.0,0.,12.0,1.,12.0
1979-07-06 15:44:27.770 ,3,0,5.,12.0,0.,12.0,0.,12.0,0.,12.0
1979-07-06 15:44:39.770 ,3,0,3.,12.0,0.,12.0,0.,12.0,2.,12.0
1979-07-06 15:44:51.770 ,2,1,6.,12.0,0.,12.0,0.,12.0,0.,12.0
1979-07-06 15:45:03.770 ,2,1,3.,12.0,0.,12.0,0.,12.0,2.,12.0
1979-07-06 15:45:15.770 ,2,0,0.,12.0,0.,12.0,0.,12.0,2.,12.0
1979-07-06 15:45:27.770 ,2,0,2.,12.0,0.,12.0,0.,12.0,0.,12.0
1979-07-06 15:45:39.770 ,1,1,3.,12.0,0.,12.0,0.,12.0,1.,12.0
1979-07-06 15:45:51.770 ,1,1,0.,12.0,0.,12.0,0.,12.0,0.,12.0
1979-07-06 15:46:03.770 ,1,0,3.,12.0,0.,12.0,0.,12.0,0.,12.0
1979-07-06 15:46:15.770 ,1,0,2.,12.0,0.,12.0,0.,12.0,0.,12.0
1979-07-06 15:46:27.770 ,0,1,5.,12.0,0.,12.0,0.,12.0,0.,12.0
1979-07-06 15:46:39.770 ,0,1,2.,12.0,0.,12.0,0.,12.0,1.,12.0
1979-07-06 15:46:51.770 ,0,0,2.,12.0,0.,12.0,0.,12.0,2.,12.0
1979-07-06 15:47:03.770 ,0,0,1.,12.0,0.,12.0,0.,12.0,0.,12.0
1979-07-06 15:47:15.770 ,0,1,4.,12.0,0.,12.0,0.,12.0,1.,12.0
1979-07-06 15:47:27.770 ,0,1,1.,12.0,0.,12.0,0.,12.0,0.,12.0
1979-07-06 15:47:39.770 ,0,0,2.,12.0,0.,12.0,0.,12.0,1.,12.0
1979-07-06 15:47:51.770 ,0,0,0.,12.0,0.,12.0,0.,12.0,2.,12.0
1979-07-06 15:48:03.770 ,1,1,0.,12.0,0.,12.0,0.,12.0,0.,12.0
1979-07-06 15:48:15.770 ,1,1,1.,12.0,0.,12.0,0.,12.0,0.,12.0
1979-07-06 15:48:27.770 ,1,0,1.,12.0,0.,12.0,0.,12.0,0.,12.0
1979-07-06 15:48:39.770 ,1,0,0.,12.0,0.,12.0,0.,12.0,0.,12.0
1979-07-06 15:48:51.770 ,2,1,0.,12.0,0.,12.0,0.,12.0,0.,12.0
1979-07-06 15:49:03.770 ,2,1,4.,12.0,0.,12.0,0.,12.0,0.,12.0
1979-07-06 15:49:15.770 ,2,0,7.,12.0,0.,12.0,0.,12.0,2.,12.0
1979-07-06 15:49:27.770 ,2,0,1.,12.0,0.,12.0,0.,12.0,0.,12.0
1979-07-06 15:49:39.770 ,3,1,2.,12.0,0.,12.0,0.,12.0,0.,12.0
1979-07-06 15:49:51.770 ,3,1,1.,12.0,0.,12.0,0.,12.0,0.,12.0
1979-07-06 15:50:03.770 ,3,0,0.,12.0,0.,12.0,0.,12.0,1.,12.0
1979-07-06 15:50:15.770 ,3,0,2.,12.0,0.,12.0,0.,12.0,1.,12.0
1979-07-06 15:50:27.770 ,4,1,3.,12.0,0.,12.0,0.,12.0,2.,12.0
1979-07-06 15:50:39.770 ,4,1,5.,12.0,0.,12.0,0.,12.0,3.,12.0
1979-07-06 15:50:51.770 ,4,0,7.,12.0,0.,12.0,0.,12.0,3.,12.0
1979-07-06 15:51:03.770 ,4,0,7.,12.0,0.,12.0,0.,12.0,8.,12.0
1979-07-06 15:51:15.770 ,5,1,11.,12.0,0.,12.0,0.,12.0,4.,12.0
1979-07-06 15:51:27.770 ,5,1,14.,12.0,0.,12.0,0.,12.0,5.,12.0
1979-07-06 15:51:39.770 ,5,0,5.,12.0,0.,12.0,0.,12.0,7.,12.0
1979-07-06 15:51:51.770 ,5,0,9.,12.0,0.,12.0,0.,12.0,6.,12.0
1979-07-06 15:52:03.770 ,6,1,10.,12.0,0.,12.0,0.,12.0,6.,12.0
1979-07-06 15:52:15.770 ,6,1,10.,12.0,0.,12.0,0.,12.0,6.,12.0
1979-07-06 15:52:27.770 ,6,0,4.,12.0,0.,12.0,0.,12.0,2.,12.0
1979-07-06 15:52:39.770 ,6,0,12.,12.0,0.,12.0,0.,12.0,5.,12.0
1979-07-06 15:52:51.770 ,7,1,15.,12.0,0.,12.0,0.,12.0,7.,12.0
1979-07-06 15:53:03.770 ,7,1,0.,12.0,0.,12.0,0.,12.0,0.,12.0
1979-07-06 15:53:15.770 ,7,0,0.,12.0,0.,12.0,0.,12.0,0.,12.0
1979-07-06 15:53:27.770 ,7,0,0.,12.0,0.,12.0,0.,12.0,0.,12.0
1979-07-06 15:53:39.770 ,7,1,0.,12.0,0.,12.0,0.,12.0,0.,12.0
1979-07-06 15:53:51.770 ,7,1,0.,12.0,0.,12.0,0.,12.0,0.,12.0
1979-07-06 15:54:03.770 ,7,0,0.,12.0,0.,12.0,0.,12.0,0.,12.0
1979-07-06 15:54:15.770 ,7,0,0.,12.0,0.,12.0,0.,12.0,0.,12.0
1979-07-06 15:54:27.770 ,6,1,0.,12.0,0.,12.0,0.,12.0,0.,12.0
1979-07-06 15:54:39.770 ,6,1,15.,12.0,0.,12.0,0.,12.0,7.,12.0
1979-07-06 15:54:51.770 ,6,0,8.,12.0,0.,12.0,0.,12.0,7.,12.0
1979-07-06 15:55:03.770 ,6,0,11.,12.0,0.,12.0,0.,12.0,2.,12.0
1979-07-06 15:55:15.770 ,5,1,10.,12.0,0.,12.0,0.,12.0,2.,12.0
1979-07-06 15:55:27.770 ,5,1,19.,12.0,0.,12.0,0.,12.0,6.,12.0
1979-07-06 15:55:39.770 ,5,0,7.,12.0,0.,12.0,0.,12.0,8.,12.0
1979-07-06 15:55:51.770 ,5,0,11.,12.0,0.,12.0,0.,12.0,7.,12.0
1979-07-06 15:56:03.770 ,4,1,12.,12.0,0.,12.0,0.,12.0,6.,12.0
1979-07-06 15:56:15.770 ,4,1,12.,12.0,0.,12.0,0.,12.0,4.,12.0
1979-07-06 15:56:27.770 ,4,0,14.,12.0,0.,12.0,0.,12.0,4.,12.0
1979-07-06 15:56:39.770 ,4,0,11.,12.0,0.,12.0,0.,12.0,1.,12.0
1979-07-06 15:56:51.770 ,3,1,9.,12.0,0.,12.0,0.,12.0,9.,12.0
1979-07-06 15:57:03.770 ,3,1,7.,12.0,0.,12.0,0.,12.0,2.,12.0
1979-07-06 15:57:15.770 ,3,0,3.,12.0,0.,12.0,0.,12.0,0.,12.0
1979-07-06 15:57:27.770 ,3,0,1.,12.0,0.,12.0,0.,12.0,2.,12.0
1979-07-06 15:57:39.770 ,2,1,6.,12.0,0.,12.0,0.,12.0,4.,12.0
1979-07-06 15:57:51.770 ,2,1,2.,12.0,0.,12.0,0.,12.0,1.,12.0
1979-07-06 15:58:03.770 ,2,0,2.,12.0,0.,12.0,0.,12.0,1.,12.0
1979-07-06 15:58:15.770 ,2,0,0.,12.0,0.,12.0,0.,12.0,0.,12.0
1979-07-06 15:58:27.770 ,1,1,2.,12.0,0.,12.0,0.,12.0,0.,12.0
1979-07-06 15:58:39.770 ,1,1,1.,12.0,0.,12.0,0.,12.0,1.,12.0
1979-07-06 15:58:51.770 ,1,0,0.,12.0,0.,12.0,0.,12.0,0.,12.0
1979-07-06 15:59:03.770 ,1,0,1.,12.0,0.,12.0,0.,12.0,0.,12.0
1979-07-06 15:59:15.770 ,0,1,2.,12.0,0.,12.0,0.,12.0,1.,12.0
1979-07-06 15:59:27.770 ,0,1,2.,12.0,0.,12.0,0.,12.0,0.,12.0
1979-07-06 15:59:39.770 ,0,0,2.,12.0,0.,12.0,0.,12.0,1.,12.0
1979-07-06 15:59:51.770 ,0,0,2.,12.0,0.,12.0,0.,12.0,1.,12.0
1979-07-06 16:00:03.770 ,0,1,3.,12.0,0.,12.0,0.,12.0,0.,12.0
1979-07-06 16:00:15.770 ,0,1,2.,12.0,0.,12.0,0.,12.0,1.,12.0
1979-07-06 16:00:27.770 ,0,0,1.,12.0,0.,12.0,0.,12.0,1.,12.0
1979-07-06 16:00:39.770 ,0,0,2.,12.0,0.,12.0,0.,12.0,1.,12.0
1979-07-06 16:00:51.770 ,1,1,1.,12.0,0.,12.0,0.,12.0,0.,12.0
1979-07-06 16:01:03.770 ,1,1,1.,12.0,0.,12.0,0.,12.0,0.,12.0
1979-07-06 16:01:15.760 ,1,0,4.,12.0,0.,12.0,0.,12.0,0.,12.0
1979-07-06 16:01:27.770 ,1,0,0.,12.0,0.,12.0,0.,12.0,0.,12.0
1979-07-06 16:01:39.770 ,2,1,1.,12.0,0.,12.0,0.,12.0,2.,12.0
1979-07-06 16:01:51.770 ,2,1,2.,12.0,0.,12.0,0.,12.0,0.,12.0
1979-07-06 16:02:03.760 ,2,0,2.,12.0,0.,12.0,0.,12.0,2.,12.0
1979-07-06 16:02:15.760 ,2,0,2.,12.0,0.,12.0,0.,12.0,1.,12.0
1979-07-06 16:02:27.760 ,3,1,0.,12.0,0.,12.0,0.,12.0,1.,12.0
1979-07-06 16:02:39.760 ,3,1,3.,12.0,0.,12.0,0.,12.0,1.,12.0
1979-07-06 16:02:51.760 ,3,0,3.,12.0,0.,12.0,0.,12.0,2.,12.0
1979-07-06 16:03:03.760 ,3,0,4.,12.0,0.,12.0,0.,12.0,1.,12.0
1979-07-06 16:03:15.760 ,4,1,4.,12.0,0.,12.0,0.,12.0,0.,12.0
1979-07-06 16:03:27.760 ,4,1,4.,12.0,0.,12.0,0.,12.0,6.,12.0
1979-07-06 16:03:39.760 ,4,0,10.,12.0,0.,12.0,0.,12.0,3.,12.0
1979-07-06 16:03:51.760 ,4,0,5.,12.0,0.,12.0,0.,12.0,4.,12.0
1979-07-06 16:04:03.760 ,5,1,7.,12.0,0.,12.0,0.,12.0,0.,12.0
1979-07-06 16:04:15.760 ,5,1,9.,12.0,0.,12.0,0.,12.0,2.,12.0
1979-07-06 16:04:27.770 ,5,0,5.,12.0,0.,12.0,0.,12.0,8.,12.0
1979-07-06 16:04:39.770 ,5,0,19.,12.0,0.,12.0,0.,12.0,4.,12.0
1979-07-06 16:04:51.770 ,6,1,5.,12.0,0.,12.0,0.,12.0,3.,12.0
1979-07-06 16:05:03.770 ,6,1,11.,12.0,0.,12.0,0.,12.0,5.,12.0
1979-07-06 16:05:15.770 ,6,0,7.,12.0,0.,12.0,0.,12.0,11.,12.0
1979-07-06 16:05:27.770 ,6,0,11.,12.0,0.,12.0,0.,12.0,4.,12.0
1979-07-06 16:05:39.770 ,7,1,14.,12.0,0.,12.0,0.,12.0,10.,12.0
1979-07-06 16:05:51.770 ,7,1,1.,12.0,0.,12.0,0.,12.0,2.,12.0
1979-07-06 16:06:03.770 ,7,0,0.,12.0,0.,12.0,0.,12.0,0.,12.0
1979-07-06 16:06:15.770 ,7,0,0.,12.0,0.,12.0,0.,12.0,0.,12.0
1979-07-06 16:06:27.770 ,7,1,0.,12.0,0.,12.0,0.,12.0,0.,12.0
1979-07-06 16:06:39.770 ,7,1,0.,12.0,0.,12.0,0.,12.0,0.,12.0
1979-07-06 16:06:51.770 ,7,0,0.,12.0,0.,12.0,0.,12.0,0.,12.0
1979-07-06 16:07:03.770 ,7,0,0.,12.0,0.,12.0,0.,12.0,0.,12.0
1979-07-06 16:07:15.770 ,6,1,0.,12.0,0.,12.0,0.,12.0,0.,12.0
1979-07-06 16:07:27.770 ,6,1,8.,12.0,0.,12.0,0.,12.0,13.,12.0
1979-07-06 16:07:39.770 ,6,0,5.,12.0,0.,12.0,0.,12.0,5.,12.0
1979-07-06 16:07:51.770 ,6,0,10.,12.0,0.,12.0,0.,12.0,4.,12.0
1979-07-06 16:08:03.770 ,5,1,12.,12.0,0.,12.0,0.,12.0,7.,12.0
1979-07-06 16:08:15.770 ,5,1,7.,12.0,0.,12.0,0.,12.0,3.,12.0
1979-07-06 16:08:27.770 ,5,0,15.,12.0,0.,12.0,0.,12.0,8.,12.0
1979-07-06 16:08:39.770 ,5,0,15.,12.0,0.,12.0,0.,12.0,7.,12.0
1979-07-06 16:08:51.760 ,0,0,13.,12.0,0.,12.0,0.,12.0,4.,12.0
1979-07-06 16:09:03.770 ,0,0,,0,,0,,0,,0
1979-07-06 16:09:15.760 ,0,0,,0,,0,,0,,0
1979-07-06 16:09:27.770 ,0,0,,0,,0,,0,,0
1979-07-06 16:09:15.760 ,4,0,4.,12.0,0.,12.0,0.,12.0,5.,12.0
1979-07-06 16:09:27.770 ,4,0,10.,12.0,0.,12.0,0.,12.0,4.,12.0
1979-07-06 16:09:39.760 ,3,1,10.,12.0,0.,12.0,0.,12.0,3.,12.0
1979-07-06 16:09:51.770 ,3,1,6.,12.0,0.,12.0,0.,12.0,1.,12.0
1979-07-06 16:10:03.760 ,3,0,1.,12.0,0.,12.0,0.,12.0,1.,12.0
1979-07-06 16:10:15.770 ,3,0,3.,12.0,0.,12.0,0.,12.0,2.,12.0
1979-07-06 16:10:27.760 ,2,1,2.,12.0,0.,12.0,0.,12.0,0.,12.0
1979-07-06 16:10:39.770 ,2,1,3.,12.0,0.,12.0,0.,12.0,0.,12.0
1979-07-06 16:10:51.760 ,2,0,2.,12.0,0.,12.0,0.,12.0,0.,12.0
1979-07-06 16:11:03.770 ,2,0,1.,12.0,0.,12.0,0.,12.0,1.,12.0
1979-07-06 16:11:15.760 ,1,1,2.,12.0,0.,12.0,0.,12.0,1.,12.0
1979-07-06 16:11:27.770 ,1,1,1.,12.0,0.,12.0,0.,12.0,0.,12.0
1979-07-06 16:11:39.760 ,1,0,3.,12.0,0.,12.0,0.,12.0,1.,12.0
1979-07-06 16:11:51.770 ,1,0,3.,12.0,0.,12.0,0.,12.0,0.,12.0
1979-07-06 16:12:03.760 ,0,1,1.,12.0,0.,12.0,0.,12.0,0.,12.0
1979-07-06 16:12:15.770 ,0,1,6.,12.0,0.,12.0,0.,12.0,2.,12.0
1979-07-06 16:12:27.760 ,0,0,4.,12.0,0.,12.0,0.,12.0,1.,12.0
1979-07-06 16:12:39.770 ,0,0,5.,12.0,0.,12.0,0.,12.0,3.,12.0
1979-07-06 16:12:51.760 ,0,1,3.,12.0,0.,12.0,0.,12.0,2.,12.0
1979-07-06 16:13:03.770 ,0,1,3.,12.0,0.,12.0,0.,12.0,1.,12.0
1979-07-06 16:13:15.760 ,0,0,3.,12.0,0.,12.0,0.,12.0,0.,12.0
1979-07-06 16:13:27.770 ,0,0,1.,12.0,0.,12.0,0.,12.0,2.,12.0
1979-07-06 16:13:39.760 ,1,1,0.,12.0,0.,12.0,0.,12.0,0.,12.0
1979-07-06 16:13:51.770 ,1,1,1.,12.0,0.,12.0,0.,12.0,2.,12.0
1979-07-06 16:14:03.760 ,1,0,2.,12.0,0.,12.0,0.,12.0,1.,12.0
1979-07-06 16:14:15.770 ,1,0,5.,12.0,0.,12.0,0.,12.0,0.,12.0
1979-07-06 16:14:27.760 ,2,1,1.,12.0,0.,12.0,0.,12.0,0.,12.0
1979-07-06 16:14:39.770 ,2,1,4.,12.0,0.,12.0,0.,12.0,1.,12.0
1979-07-06 16:14:51.760 ,2,0,2.,12.0,0.,12.0,0.,12.0,0.,12.0
1979-07-06 16:15:03.770 ,2,0,2.,12.0,0.,12.0,0.,12.0,1.,12.0
1979-07-06 16:15:15.760 ,3,1,1.,12.0,0.,12.0,0.,12.0,0.,12.0
1979-07-06 16:15:27.770 ,3,1,2.,12.0,0.,12.0,0.,12.0,1.,12.0
1979-07-06 16:15:39.760 ,3,0,4.,12.0,0.,12.0,0.,12.0,0.,12.0
1979-07-06 16:15:51.770 ,3,0,3.,12.0,0.,12.0,0.,12.0,2.,12.0
1979-07-06 16:16:03.760 ,4,1,2.,12.0,0.,12.0,0.,12.0,0.,12.0
1979-07-06 16:16:15.770 ,4,1,6.,12.0,0.,12.0,0.,12.0,8.,12.0
1979-07-06 16:16:27.760 ,4,0,7.,12.0,0.,12.0,0.,12.0,6.,12.0
1979-07-06 16:16:39.770 ,4,0,4.,12.0,0.,12.0,0.,12.0,2.,12.0
1979-07-06 16:16:51.760 ,5,1,9.,12.0,0.,12.0,0.,12.0,3.,12.0